DH3PAE-6 Weather Reports


time (UTC)temp
F
wind
direction
speed
knots
gust
knots
rain 1hr
in
rain 24hr
in
rain mn
in
humidity
%
barometer
mb
20260502231837 51 0.0 0.9 0.00 0.03 0.00 97 1014.2
20260502230820 51 0.0 0.0 0.00 0.03 0.00 97 1014.2
20260502225820 51 0.0 0.0 0.00 0.03 0.00 97 1014.3
20260502224817 51 0.0 0.0 0.00 0.03 0.00 97 1014.4
20260502223820 52 0.0 0.0 0.00 0.03 0.00 97 1014.3
20260502222817 51 0.0 0.0 0.00 0.03 0.00 97 1014.3
20260502221837 51 0.0 0.0 0.00 0.03 0.00 97 1014.5
20260502220817 52 0.0 0.0 0.00 0.03 0.00 97 1014.5
20260502215816 51 0.0 0.0 0.00 0.03 0.03 97 1014.6
20260502214817 52 0.0 0.0 0.00 0.03 0.03 97 1014.6
20260502213817 53 0.0 0.0 0.00 0.03 0.03 97 1014.7
20260502212840 52 90 0.9 0.9 0.00 0.03 0.03 97 1014.7
20260502211817 51 90 0.9 0.9 0.00 0.03 0.03 96 1014.7
20260502210819 53 0.0 0.0 0.00 0.03 0.03 97 1014.7
20260502205819 53 0.0 0.0 0.00 0.03 0.03 96 1014.7
20260502204817 53 0.0 0.0 0.00 0.03 0.03 96 1014.7
20260502203816 53 0.0 0.0 0.00 0.03 0.03 96 1014.7
20260502202819 54 0.0 0.0 0.00 0.03 0.03 97 1014.8
20260502201817 54 0.0 0.0 0.00 0.03 0.03 96 1014.8
20260502200816 55 0.0 0.0 0.00 0.03 0.03 96 1014.8
20260502195817 55 0.0 0.0 0.00 0.03 0.03 96 1014.9
20260502194817 55 0.0 0.0 0.00 0.03 0.03 96 1014.9
20260502193836 56 0.0 0.0 0.00 0.03 0.03 96 1014.9
20260502192817 57 0.0 0.0 0.00 0.03 0.03 95 1014.9
20260502191817 58 0.0 0.0 0.00 0.03 0.03 95 1014.9
20260502190820 58 0.0 0.0 0.00 0.03 0.03 96 1014.8
20260502185817 59 0.0 0.0 0.00 0.03 0.03 95 1014.8
20260502184820 59 0.0 0.0 0.00 0.03 0.03 95 1014.8
20260502183819 60 0.0 0.0 0.00 0.03 0.03 95 1014.8
20260502182816 61 0.0 0.0 0.00 0.03 0.03 94 1014.7
20260502181816 61 0.0 0.0 0.00 0.03 0.03 94 1014.7
20260502180901 61 0.0 0.0 0.00 0.03 0.03 94 1014.5
20260502163816 64 315 1.7 2.6 0.03 0.03 0.03 86 1014.9
20260502162816 66 315 2.6 3.5 0.01 0.01 0.01 73 1015.1
20260502161816 68 45 4.3 6.1 0.00 0.00 0.00 66 1015.3
20260502160816 69 68 2.6 3.5 0.00 0.00 0.00 63 1015.4
20260502151816 74 135 2.6 6.1 0.00 0.00 0.00 46 1015.6
20260502150816 75 90 2.6 3.5 0.00 0.00 0.00 51 1015.5
20260502123816 74 158 4.3 7.0 0.00 0.00 0.00 44 1017.1
20260502122819 74 158 7.0 10.4 0.00 0.00 0.00 48 1017.2
20260502121816 74 225 7.0 15.6 0.00 0.00 0.00 48 1017.3
20260502120836 74 90 4.3 7.0 0.00 0.00 0.00 47 1017.3
20260502115819 73 113 7.0 8.7 0.00 0.00 0.00 49 1017.6
20260502114816 74 293 2.6 5.2 0.00 0.00 0.00 47 1017.6
20260502113819 75 180 4.3 8.7 0.00 0.00 0.00 47 1017.8
20260502112816 74 203 7.0 8.7 0.00 0.00 0.00 46 1018.2
20260502111816 73 203 6.1 10.4 0.00 0.00 0.00 48 1018.2
20260502110846 73 180 6.1 8.7 0.00 0.00 0.00 48 1018.3
20260502105824 72 203 7.0 8.7 0.00 0.00 0.00 48 1018.4
20260502104816 73 225 2.6 4.3 0.00 0.00 0.00 46 1018.6
20260502103816 73 158 4.3 6.1 0.00 0.00 0.00 50 1018.8
20260502102816 72 225 7.8 9.6 0.00 0.00 0.00 48 1018.9
20260502101816 70 225 3.5 6.1 0.00 0.00 0.00 52 1019.0
20260502100859 70 180 6.1 10.4 0.00 0.00 0.00 49 1019.1
20260502090836 70 180 2.6 4.3 0.00 0.00 0.00 50 1019.4
20260502070816 62 135 6.1 9.6 0.00 0.00 0.00 46 1020.4
20260502065819 62 180 5.2 8.7 0.00 0.00 0.00 49 1020.5
20260502064815 62 203 2.6 4.3 0.00 0.00 0.00 50 1020.3
20260502063816 60 158 2.6 4.3 0.00 0.00 0.00 53 1020.6
20260502062816 59 135 3.5 4.3 0.00 0.00 0.00 52 1020.5
20260502061816 59 180 2.6 3.5 0.00 0.00 0.00 52 1020.6
20260502060819 58 158 3.5 5.2 0.00 0.00 0.00 52 1020.6
20260502055816 57 158 3.5 5.2 0.00 0.00 0.00 53 1020.7
20260502054819 56 180 3.5 6.1 0.00 0.00 0.00 55 1020.7
20260502053816 56 203 4.3 6.1 0.00 0.00 0.00 55 1020.5
20260502052818 55 158 2.6 4.3 0.00 0.00 0.00 55 1020.6
20260502051818 54 135 2.6 5.2 0.00 0.00 0.00 58 1020.5
20260502050838 53 203 2.6 4.3 0.00 0.00 0.00 59 1020.5
20260502045816 53 225 2.6 3.5 0.00 0.00 0.00 60 1020.5
20260502044815 51 180 1.7 3.5 0.00 0.00 0.00 62 1020.4
20260502043819 51 0.0 0.9 0.00 0.00 0.00 61 1020.2
20260502042815 51 180 0.9 1.7 0.00 0.00 0.00 61 1020.2
20260502041816 50 203 0.9 2.6 0.00 0.00 0.00 63 1020.2
20260502040815 51 203 2.6 3.5 0.00 0.00 0.00 61 1020.3
20260502035817 51 225 1.7 2.6 0.00 0.00 0.00 62 1020.3
20260502034822 51 225 2.6 3.5 0.00 0.00 0.00 61 1020.5
20260502033820 51 203 2.6 5.2 0.00 0.00 0.00 60 1020.6
20260502032818 49 203 1.7 2.6 0.00 0.00 0.00 65 1020.6
20260502031837 51 225 3.5 5.2 0.00 0.00 0.00 62 1020.6
20260502030820 49 203 0.9 1.7 0.00 0.00 0.00 66 1020.6
20260502025820 45 0.0 0.0 0.00 0.00 0.00 74 1020.5
20260502024818 42 225 1.7 2.6 0.00 0.00 0.00 79 1020.4
20260502023817 41 225 0.9 1.7 0.00 0.00 0.00 81 1020.4
20260502022817 42 0.0 0.9 0.00 0.00 0.00 79 1020.5
20260502021817 40 0.0 0.0 0.00 0.00 0.00 83 1020.4
20260502020837 40 0.0 0.0 0.00 0.00 0.00 82 1020.5
20260502015817 40 0.0 0.0 0.00 0.00 0.00 83 1020.5
20260502014837 41 113 0.9 1.7 0.00 0.00 0.00 81 1020.5
20260502013840 41 0.0 0.0 0.00 0.00 0.00 82 1020.5
20260502012817 40 0.0 0.0 0.00 0.00 0.00 82 1020.6
20260502011817 40 0.0 0.0 0.00 0.00 0.00 83 1020.5
20260502010817 40 0.0 0.0 0.00 0.00 0.00 83 1020.6
20260502005817 40 0.0 0.0 0.00 0.00 0.00 83 1020.7
20260502004817 40 0.0 0.0 0.00 0.00 0.00 82 1020.8
20260502003820 41 0.0 0.0 0.00 0.00 0.00 82 1020.8
20260502002820 40 0.0 0.0 0.00 0.00 0.00 83 1020.9
20260502001817 41 0.0 0.0 0.00 0.00 0.00 82 1021.1
20260502000820 41 0.0 0.0 0.00 0.00 0.00 82 1021.1
20260501235817 41 0.0 0.0 0.00 0.00 0.00 81 1021.1
20260501234817 41 0.0 0.0 0.00 0.00 0.00 82 1021.3
20260501233817 42 0.0 0.0 0.00 0.00 0.00 80 1021.3
20260501232837 42 0.0 0.0 0.00 0.00 0.00 79 1021.4